Location: LDNL
(36.4545°S, 141.6685°E)
Time: 19:51:17
(UTC+11:00)

A-11 Canister half - All Passes

Search period start: 28 January 2022 00:00
Search period end: 07 February 2022 00:00
Orbit: 1516 x 1684 km, 47.2° (Epoch: 27 January)

Date Brightness Start Highest point End Pass type
(mag) Time Alt. Az. Time Alt. Az. Time Alt. Az.
28 Jan - 02:23:38 10° NE 02:26:52 12° ENE 02:30:09 10° E visible
28 Jan - 04:20:49 10° NNW 04:30:10 55° NE 04:39:52 10° ESE visible
28 Jan - 06:25:25 10° WNW 06:35:13 63° SSW 06:45:21 10° ESE daylight
28 Jan - 08:32:18 10° WSW 08:41:54 45° S 08:51:38 10° ESE daylight
28 Jan - 10:38:25 10° WSW 10:48:35 65° SSE 10:58:41 10° ENE daylight
28 Jan - 12:43:49 10° WSW 12:53:39 54° NW 13:03:18 10° NNE daylight
28 Jan - 14:53:45 10° W 14:57:01 12° WNW 15:00:15 10° NW daylight
29 Jan - 02:02:28 10° NE 02:04:04 10° ENE 02:05:40 10° ENE visible
29 Jan - 03:58:03 10° NNW 04:07:16 52° NE 04:16:51 10° ESE visible
29 Jan - 06:02:25 10° WNW 06:12:13 66° SSW 06:22:22 10° ESE visible
29 Jan - 08:09:16 10° WSW 08:18:50 45° S 08:28:34 10° ESE daylight
29 Jan - 10:15:26 10° WSW 10:25:34 63° SSE 10:35:40 10° ENE daylight
29 Jan - 12:20:49 10° WSW 12:30:44 57° NW 12:40:30 10° NNE daylight
29 Jan - 14:29:53 10° W 14:34:11 13° WNW 14:38:28 10° NNW daylight
30 Jan - 03:35:18 10° NNW 03:44:23 48° NE 03:53:49 10° ESE visible
30 Jan - 05:39:26 10° WNW 05:49:13 68° SSW 05:59:22 10° ESE visible
30 Jan - 07:46:14 10° WSW 07:55:47 46° S 08:05:30 10° ESE daylight
30 Jan - 09:52:27 10° WSW 10:02:32 61° SSE 10:12:37 10° ENE daylight
30 Jan - 11:57:49 10° WSW 12:07:49 61° NW 12:17:40 10° NE daylight
30 Jan - 14:06:14 10° W 14:11:21 15° WNW 14:16:26 10° NNW daylight
31 Jan - 03:12:35 10° NNW 03:21:31 45° NE 03:30:48 10° ESE visible
31 Jan - 05:16:28 10° WNW 05:26:14 71° SSW 05:36:23 10° ESE visible
31 Jan - 07:23:12 10° WSW 07:32:43 46° S 07:42:26 10° ESE daylight
31 Jan - 09:29:29 10° WSW 09:39:31 59° SSE 09:49:34 10° E daylight
31 Jan - 11:34:50 10° WSW 11:44:53 64° NW 11:54:50 10° NE daylight
31 Jan - 13:42:45 10° W 13:48:31 17° WNW 13:54:15 10° NNW daylight
01 Feb - 02:49:53 10° NNW 02:58:39 42° NE 03:07:45 10° ESE visible
01 Feb - 04:53:30 10° WNW 05:03:15 73° SSW 05:13:24 10° ESE visible
01 Feb - 07:00:10 10° WSW 07:09:39 46° S 07:19:23 10° ESE daylight
01 Feb - 09:06:31 10° WSW 09:16:29 57° SSE 09:26:31 10° E daylight
01 Feb - 11:11:51 10° WSW 11:21:58 68° NW 11:31:59 10° NE daylight
01 Feb - 13:19:22 10° W 13:25:41 19° WNW 13:31:57 10° NNW daylight
02 Feb - 02:27:12 10° NNW 02:35:47 39° NE 02:44:41 10° ESE visible
02 Feb - 04:30:33 10° WNW 04:40:17 76° SSW 04:50:25 10° ESE visible
02 Feb - 06:37:07 10° WSW 06:46:36 46° S 06:56:20 10° ESE daylight
02 Feb - 08:43:33 10° WSW 08:53:27 55° SSE 09:03:27 10° E daylight
02 Feb - 10:48:52 10° WSW 10:59:02 72° NW 11:09:06 10° NE daylight
02 Feb - 12:56:03 10° W 13:02:50 20° NW 13:09:35 10° NNW daylight
03 Feb - 02:04:31 10° NNW 02:12:56 37° NE 02:21:38 10° ESE visible
03 Feb - 04:07:37 10° WNW 04:17:18 80° SSW 04:27:26 10° ESE visible
03 Feb - 06:14:05 10° W 06:23:32 47° S 06:33:16 10° ESE visible
03 Feb - 08:20:34 10° WSW 08:30:25 54° SSE 08:40:23 10° E daylight
03 Feb - 10:25:55 10° WSW 10:36:05 76° NW 10:46:14 10° NE daylight
03 Feb - 12:32:47 10° W 12:39:59 22° NW 12:47:09 10° N daylight
04 Feb - 01:41:54 10° N 01:50:05 34° NE 01:58:32 10° ESE visible
04 Feb - 03:44:41 10° WNW 03:54:21 83° SSW 04:04:28 10° ESE visible
04 Feb - 05:51:03 10° W 06:00:29 47° S 06:10:13 10° ESE visible
04 Feb - 07:57:35 10° WSW 08:07:23 52° SSE 08:17:19 10° E daylight
04 Feb - 10:02:56 10° WSW 10:13:09 79° NW 10:23:19 10° NE daylight
04 Feb - 12:09:34 10° WSW 12:17:08 24° NW 12:24:40 10° N daylight
05 Feb - 01:19:17 10° N 01:27:14 31° NE 01:35:26 10° ESE visible
05 Feb - 03:21:46 10° WNW 03:31:24 86° SW 03:41:29 10° ESE visible
05 Feb - 05:28:01 10° W 05:37:26 48° S 05:47:11 10° ESE visible
05 Feb - 07:34:36 10° WSW 07:44:20 51° SSE 07:54:14 10° E daylight
05 Feb - 09:40:00 10° WSW 09:50:11 83° NW 10:00:24 10° NE daylight
05 Feb - 11:46:23 10° WSW 11:54:16 26° NW 12:02:08 10° N daylight
06 Feb - 00:56:41 10° N 01:04:24 29° NE 01:12:18 10° ESE visible
06 Feb - 02:58:51 10° NW 03:08:28 90° SW 03:18:30 10° ESE visible
06 Feb - 05:04:59 10° W 05:14:24 49° SSW 05:24:09 10° ESE visible
06 Feb - 07:11:38 10° WSW 07:21:18 50° SSE 07:31:09 10° E daylight
06 Feb - 09:17:01 10° WSW 09:27:13 87° NW 09:37:28 10° NE daylight
06 Feb - 11:23:14 10° WSW 11:31:25 29° NW 11:39:34 10° N daylight
